Back to catalog

FREGAT R/B

AliveHEO
NORAD 41555·ROCKET BODY·🇷🇺 Russia

Launched May 29, 2016 from Plesetsk Cosmodrome

Loading…

Next Passes (next 24 hours)

TLE

FreshSource: Space-Track

Epoch: Sep 13, 2026, 20:04 UTC

1 41555U 16032B   26256.83661522  .00000018  00000-0  00000-0 0  9995
2 41555  63.7041 194.2000 0080540 118.0118 242.7994  2.08091433 78244

Track FREGAT R/B in real time with AllMySat

Download on the App Store